Regional Weather Roundup
Issued by NWS

Home | Current Version | Previous Version | Text Only | Print | Product List | Glossary On
Versions: 1 2 3 4 5 6 7 8 9 10 11 12 13 14 15 16 17 18 19 20 21 22 23 24 25 26 27 28 29 30 31 32 33 34 35 36 37 38 39 40 41 42 43 44 45 46 47 48 49 50
000
ASUS43 KLMK 170102
RWRKY
KENTUCKY REGIONAL WEATHER ROUNDUP
NATIONAL WEATHER SERVICE LOUISVILLE KY
900 PM EDT MON OCT 16 2017

NOTE "FAIR" INDICATES FEW OR NO CLOUDS BELOW 12,000 FEET
WITH NO SIGNIFICANT WEATHER AND/OR OBSTRUCTIONS TO VISIBILITY.

KYZ001>023-026-027-061>063-070>075-170200-
WESTERN AND SOUTH CENTRAL KENTUCKY

CITY           SKY/WX    TMP DP  RH WIND       PRES   REMARKS
PADUCAH        CLEAR     46  40  79 CALM      30.31R
HENDERSON      CLEAR     46  42  86 CALM      30.32R
OWENSBORO      CLEAR     55  39  54 N3        30.32R
HOPKINSVILLE   CLEAR     53  39  59 NE3       30.30S HAZE
BOWLING GREEN  CLEAR     52  44  74 CALM      30.31R
GLASGOW        NOT AVBL
$$

KYZ024-025-028>034-038-045-046-053-170200-
NORTH CENTRAL KENTUCKY

CITY           SKY/WX    TMP DP  RH WIND       PRES   REMARKS
LOUISVILLE/SDF CLEAR     57  39  51 N3        30.30S
LOUISVILLE/LOU CLEAR     50  43  77 CALM      30.31S
FORT KNOX      CLEAR     46  42  85 CALM      30.29S
$$

KYZ035>037-039>044-047>052-055>060-089>105-170200-
NORTHEAST KENTUCKY

CITY           SKY/WX    TMP DP  RH WIND       PRES   REMARKS
LEXINGTON      CLEAR     51  41  68 CALM      30.31R
COVINGTON      CLEAR     47  41  80 CALM      30.30R
FRANKFORT      CLEAR     47  40  76 CALM      30.30R
$$

KYZ054-064>069-076>088-106>120-170200-
SOUTHEAST KENTUCKY

CITY           SKY/WX    TMP DP  RH WIND       PRES   REMARKS
JACKSON        CLEAR     51  39  63 CALM      30.30R
LONDON         CLEAR     49  42  77 N3        30.30R
SOMERSET       NOT AVBL
MIDDLESBORO    PTCLDY    48  43  84 CALM      30.30R
MONTICELLO     CLEAR     45  43  93 N10       30.32R
$$




USA.gov is the U.S. government's official web portal to all federal, state and local government web resources and services.